OOMED EBAW-EBBR

Flight info

Callsign OOMED
Flight time 0h 12m
Altitude 7000
Route BUN/N0271F060 DCT GIKNU DCT BUB
Aircraft C750/M-SBDE3FGHRWXY/S

Departure

Time 2026-05-07 18:28
Airport Antwerp International Airport (Deurne) (EBAW)

Arrival

Time 2026-05-07 18:40
Airport Brussels Airport (EBBR)
Time Latitude Longitude Altitude Speed Heading
2026-05-07 18:00 51.18924 4.45315 37 ft 0 kts 329°
2026-05-07 18:23 51.18942 4.45298 37 ft 4 kts 331°
2026-05-07 18:24 51.18954 4.45294 37 ft 1 kts 356°
2026-05-07 18:24 51.18957 4.45301 37 ft 1 kts 51°
2026-05-07 18:24 51.18957 4.45325 37 ft 3 kts 87°
2026-05-07 18:24 51.18957 4.45354 37 ft 3 kts 92°
2026-05-07 18:25 51.18957 4.45380 37 ft 2 kts 78°
2026-05-07 18:25 51.18967 4.45416 37 ft 7 kts 62°
2026-05-07 18:25 51.19020 4.45521 36 ft 11 kts 37°
2026-05-07 18:25 51.19030 4.45524 36 ft 1 kts 343°
2026-05-07 18:26 51.19052 4.45496 35 ft 5 kts 333°
2026-05-07 18:26 51.19086 4.45453 35 ft 11 kts 317°
2026-05-07 18:26 51.19175 4.45334 32 ft 18 kts 322°
2026-05-07 18:26 51.19216 4.45358 32 ft 6 kts 116°
2026-05-07 18:27 51.19202 4.45409 32 ft 4 kts 109°
2026-05-07 18:27 51.19201 4.45412 32 ft 0 kts 109°
2026-05-07 18:27 51.19200 4.45417 32 ft 7 kts 110°
2026-05-07 18:28 51.19055 4.46061 37 ft 116 kts 109°
2026-05-07 18:28 51.18735 4.47462 417 ft 135 kts 109°
2026-05-07 18:28 51.18397 4.48885 868 ft 140 kts 111°
2026-05-07 18:28 51.18033 4.50418 1073 ft 157 kts 109°
2026-05-07 18:29 51.17638 4.52079 1350 ft 161 kts 110°
2026-05-07 18:29 51.17201 4.53860 1327 ft 184 kts 111°
2026-05-07 18:29 51.16701 4.55835 1287 ft 198 kts 111°
2026-05-07 18:29 51.16171 4.57939 1262 ft 211 kts 111°
2026-05-07 18:30 51.15614 4.60152 1256 ft 211 kts 111°
2026-05-07 18:30 51.14878 4.62161 1215 ft 213 kts 126°
2026-05-07 18:30 51.14224 4.64296 1194 ft 211 kts 110°
2026-05-07 18:30 51.13700 4.66629 1403 ft 240 kts 109°
2026-05-07 18:31 51.13127 4.69175 2340 ft 233 kts 109°
2026-05-07 18:31 51.12611 4.71467 3106 ft 226 kts 109°
2026-05-07 18:31 51.12060 4.73918 3033 ft 239 kts 109°
2026-05-07 18:31 51.11503 4.76395 3000 ft 233 kts 109°
2026-05-07 18:32 51.10960 4.78801 2985 ft 228 kts 109°
2026-05-07 18:32 51.10427 4.81158 2988 ft 225 kts 109°
2026-05-07 18:32 51.09901 4.83487 2991 ft 223 kts 109°
2026-05-07 18:32 51.09373 4.85813 2993 ft 223 kts 109°
2026-05-07 18:33 51.08846 4.88135 2996 ft 224 kts 109°
2026-05-07 18:33 51.08308 4.90450 2987 ft 224 kts 112°
2026-05-07 18:33 51.07313 4.92306 2679 ft 223 kts 147°
2026-05-07 18:33 51.05761 4.92819 2040 ft 241 kts 182°
2026-05-07 18:34 51.04145 4.92495 2018 ft 227 kts 189°
2026-05-07 18:34 51.02830 4.91249 1954 ft 222 kts 231°
2026-05-07 18:34 51.02296 4.88999 2025 ft 215 kts 258°
2026-05-07 18:34 51.01782 4.86804 2020 ft 213 kts 245°
2026-05-07 18:35 51.01157 4.84729 2013 ft 204 kts 245°
2026-05-07 18:35 51.00566 4.82693 2007 ft 203 kts 245°
2026-05-07 18:35 50.99985 4.80645 2012 ft 204 kts 245°
2026-05-07 18:35 50.99389 4.78575 2010 ft 206 kts 245°
2026-05-07 18:36 50.98788 4.76486 2014 ft 223 kts 245°
2026-05-07 18:36 50.98142 4.74242 2010 ft 217 kts 245°
2026-05-07 18:36 50.97548 4.72149 2002 ft 200 kts 246°
2026-05-07 18:36 50.96983 4.70177 1989 ft 193 kts 245°
2026-05-07 18:37 50.96428 4.68254 1989 ft 190 kts 245°
2026-05-07 18:37 50.95872 4.66329 1991 ft 192 kts 245°
2026-05-07 18:37 50.95311 4.64386 1994 ft 195 kts 245°
2026-05-07 18:37 50.94744 4.62403 1862 ft 208 kts 245°
2026-05-07 18:38 50.94147 4.60335 1548 ft 202 kts 245°
2026-05-07 18:38 50.93624 4.58470 1269 ft 168 kts 245°
2026-05-07 18:38 50.93182 4.56930 1087 ft 146 kts 244°
2026-05-07 18:38 50.92761 4.55519 904 ft 138 kts 245°
2026-05-07 18:39 50.92361 4.54143 737 ft 137 kts 245°
2026-05-07 18:39 50.91970 4.52761 548 ft 138 kts 246°
2026-05-07 18:39 50.91571 4.51380 363 ft 137 kts 243°
2026-05-07 18:39 50.91175 4.50014 162 ft 135 kts 244°
2026-05-07 18:40 50.90803 4.48726 123 ft 119 kts 245°
2026-05-07 18:40 50.90523 4.47777 120 ft 59 kts 246°
2026-05-07 18:40 50.90392 4.47312 122 ft 45 kts 243°
2026-05-07 18:40 50.90273 4.46947 122 ft 12 kts 221°
2026-05-07 18:41 50.90219 4.46977 124 ft 10 kts 126°
2026-05-07 18:41 50.90178 4.47101 120 ft 15 kts 112°
2026-05-07 18:41 50.90138 4.47255 121 ft 14 kts 98°
2026-05-07 18:41 50.90162 4.47403 120 ft 13 kts 65°
2026-05-07 18:42 50.90172 4.47470 119 ft 1 kts 110°
2026-05-07 18:42 50.90160 4.47488 117 ft 8 kts 150°
2026-05-07 18:42 50.90024 4.47578 118 ft 27 kts 158°
2026-05-07 18:42 50.89952 4.47577 122 ft 5 kts 246°
2026-05-07 18:43 50.89932 4.47536 122 ft 10 kts 173°
2026-05-07 18:43 50.89862 4.47530 125 ft 17 kts 191°